Regional Weather Roundup
Issued by NWS

Home | Current Version | Previous Version | Graphics & Text | Print | Product List | Glossary On
Versions: 1 2 3 4 5 6 7 8 9 10 11 12 13 14 15 16 17 18 19 20 21 22 23 24 25 26 27 28
000
ASUS45 KCYS 220310
RWRWY

WYOMING REGIONAL WEATHER ROUNDUP
NATIONAL WEATHER SERVICE CHEYENNE WY
900 PM MDT SAT OCT 21 2017

NOTE:  "FAIR" INDICATES FEW OR NO CLOUDS BELOW 12,000 FEET
WITH NO SIGNIFICANT WEATHER AND/OR OBSTRUCTIONS TO VISIBILITY.

WYZ001-220400-
YELLOWSTONE NATIONAL PARK

CITY           SKY/WX    TMP DP  RH WIND       PRES   REMARKS
LK YELLOWSTONE   N/A     25  22  88 CALM      30.18R
W YELLOWSTONE  NOT AVBL

$$
WYZ002>013-054>058-071-098>099-220400-
NORTHERN WYOMING

CITY           SKY/WX    TMP DP  RH WIND       PRES   REMARKS
JACKSON        CLOUDY    32  24  72 S15       30.22R WCI  22
CODY           FAIR      41  18  39 W14G22    30.03S
GREYBULL       FAIR      45  16  31 SW5       30.01S
WORLAND        FAIR      33  18  53 E8        30.02S WCI  26
SHERIDAN       FAIR      33  16  49 S5        29.97R WCI  29
BUFFALO        FAIR      39   8  27 S3        29.99R
GILLETTE       FAIR      30  15  53 S5        29.97S WCI  25
HULETT         FAIR      36  18  48 S7        29.98R WCI  30
NEWCASTLE      FAIR      34  14  44 SE3       30.00S

$$
WYZ014>020-022>026-101>103-220400-
CENTRAL WYOMING

CITY           SKY/WX    TMP DP  RH WIND       PRES   REMARKS
BIG PINEY      MOCLDY    27  15  61 CALM      30.24R
PINEDALE       CLOUDY    28  18  64 NW8       30.25R WCI  20
DUBOIS         FAIR      30  18  59 NW21G31   30.12F WCI  17
LANDER         FAIR      36  15  42 SE5       30.08R WCI  32
RIVERTON       FAIR      39  16  39 NW17G26   30.07R WCI  30
CASPER         FAIR      32  12  43 SW10      30.07R WCI  24
DOUGLAS        FAIR      34  13  41 CALM      30.05R

$$
WYZ021-027>030-104>119-220400-
SOUTHERN WYOMING

CITY           SKY/WX    TMP DP  RH WIND       PRES   REMARKS
EVANSTON       FAIR      32  12  43 SW12      30.28S WCI  23
FORT BRIDGER   FAIR      34  11  38 W13       30.30S WCI  25
ROCK SPRINGS   CLOUDY    35  12  38 SW13      30.26R WCI  26
DIXON          FAIR      33  21  61 W7        30.29R WCI  27
RAWLINS        FAIR      36  12  37 W20G30    30.18R WCI  25
SARATOGA       FAIR      32  19  59 W7        30.22R WCI  26
LARAMIE        FAIR      30  16  56 SW14      30.13R WCI  19
CHEYENNE       FAIR      36  17  46 W10       30.10F WCI  28
TORRINGTON     FAIR      44  13  28 W10       30.05R
PINE BLUFFS    FAIR      32  18  55 MISG      30.12S

$$




USA.gov is the U.S. government's official web portal to all federal, state and local government web resources and services.